Location: North Evanston
(42.0634°N, 87.6976°W)
Time: 14:06:53
(UTC+00:00)

Vanguard 2 - Pass Details

Date: 12 May 2026
Orbit: 553 x 2894 km, 32.9° (Epoch: 8 June)

Event Time Altitude Azimuth Distance (km) Brightness Sun altitude
Rises 14:11:54 0° 276° (W) 6,024 11.6 38.7°
Reaches altitude 10° 14:17:07 10° 266° (W) 4,627 11.1 39.7°
Maximum altitude 14:26:23 27° 217° (SW) 2,702 10.4 41.4°
Drops below altitude 10° 14:32:48 10° 163° (SSE) 3,113 11.1 42.5°
Sets 14:35:35 0° 150° (SSE) 3,778 11.6 43.0°
